Regional Weather Roundup
Issued by NWS Austin/San Antonio, TX

Home | Current Version | Previous Version | Text Only | Print | Product List | Glossary On
Versions: 1 2 3 4 5 6 7 8 9 10 11 12 13 14 15 16 17 18 19 20 21 22 23 24 25 26 27 28 29 30 31 32 33 34 35 36 37 38 39 40 41 42 43 44 45 46 47 48 49 50
000
ASUS44 KEWX 210810
RWREWX
SOUTH TEXAS REGIONAL WEATHER ROUNDUP
NATIONAL WEATHER SERVICE AUSTIN/SAN ANTONIO TX
300 AM CDT SUN APR 21 2019

NOTE: "FAIR" INDICATED FEW OR NO CLOUDS BELOW 12,000 FEET WITH NO
SIGNIFICANT WEATHER AND/OR OBSTRUCTIONS TO VISIBILITY.

* - THESE STATIONS ARE NOT NWS OR FAA STATIONS...AND ARE NOT SUBJECT
    TO NWS AND FAA QUALITY CONTROL.

TXZ171-172-183>190-210900-
TEXAS HILL COUNTRY AND EDWARDS PLATEAU

CITY           SKY/WX    TMP DP  RH WIND       PRES   REMARKS
JUNCTION       CLEAR     64  53  67 S12G20    29.92F
*LLANO         CLEAR     61  54  77 SE3       29.96F
BURNET         CLEAR     62  51  67 S9        29.96F
*HORSESHOE BAY CLEAR     63  50  62 S10G18    29.94F
*KERRVILLE     CLEAR     59  53  81 S9        29.97S
*FREDERICKSBRG CLEAR     57  49  74 S5        29.97S
*ROCKSPRINGS     N/A     61  52  72 SE17      29.98F
*BOERNE STAGE  CLEAR     57  52  82 S6        29.98F
*CASTROVILLE   CLEAR     60  54  80 CALM      29.98F
HONDO          CLEAR     61  56  83 E6        29.96F
*UVALDE        CLEAR     56  55  94 NE8       29.95S
DEL RIO        PTCLDY    67  56  67 E10       29.88F
LAUGHLIN AFB   PTCLDY    65  56  70 SE13      29.88F
CARRIZO SPRGS  CLEAR     63  54  72 SE5       29.90S
*FAITH RANCH   CLEAR     68  54  60 SE9       29.90S
$$

TXZ173-191>194-202-209-217>225-228-210900-
CENTRAL AND SOUTH CENTRAL TEXAS

CITY           SKY/WX    TMP DP  RH WIND       PRES   REMARKS
GEORGETOWN     PTCLDY    63  54  72 S10       29.97F
AUSTIN/BERGSTM PTCLDY    57  54  89 S6        29.96F
AUSTIN/MABRY   PTCLDY    61  55  81 VRB5      29.97F
*AUSTIN/EXEC   PTCLDY    57  55  94 S5        29.97F
*LAGO VISTA    PTCLDY    61  54  75 S10G21    29.96F
SAN MARCOS     CLEAR     56  54  93 CALM      29.97F
NEW BRAUNFELS  CLEAR     57  55  93 SW3       29.96F
RANDOLPH AFB   CLEAR     57  54  92 S3        29.97F
PT SAN ANTONIO CLEAR     59  56  91 SE6       29.94F
SAN ANTONIO    PTCLDY    61  56  83 S8        29.98F
STINSON FIELD  CLEAR     60  54  80 CALM      29.95F
*LA GRANGE     CLEAR     60  60 100 S5        29.96S
*GIDDINGS      CLEAR     62  60  94 S3        29.98F
*GONZALES      CLEAR     59  59  99 SE5       29.97S
$$

TXZ163>164-176>182-195>201-210>213-226-227-235-210900-
SOUTHEAST TEXAS

CITY           SKY/WX    TMP DP  RH WIND       PRES   REMARKS
COLLEGE STN    CLEAR     58  55  90 SE7       29.98F
*BRYAN         CLEAR     57  57 100 S5        29.99F
*CALDWELL      CLEAR     57  56  95 S3        29.98S
*CROCKETT        N/A     54  50  87 CALM      30.03S
*BRENHAM       CLEAR     58  57  99 CALM      29.99F
HUNTSVILLE     CLEAR     58  51  78 S5        29.99F
CONROE         CLEAR     50  50 100 CALM      30.01F
HOUSTON BUSH   PTCLDY    54  53  97 SE5       30.00F
HOUSTON HOBBY  FAIR      59  53  80 S6        30.00F
*HOUSTON SW AP FAIR      51  51  99 CALM      30.01F
PEARLAND       FAIR      57  54  89 CALM      30.02F
HOUSTON HOOKS  FAIR      60  53  77 CALM      30.00F
ELLINGTON FLD  NOT AVBL
SUGAR LAND     FAIR      59  54  83 SE6       30.00F
*HOUSTON EXEC  FAIR      55  54  94 S6        30.01S
*CLEVELAND MUN FAIR      51  51 100 CALM      30.02F
*WHARTON       CLEAR     56  54  91 SE3       30.00F
*COLUMBUS      FAIR      58  55  89 S5        30.00S
*EAGLE LAKE    SUNNY     57  55  94 S3        29.99
$$

TXZ214>216-236>238-210900-
THE UPPER TEXAS COAST

CITY           SKY/WX    TMP DP  RH WIND       PRES   REMARKS
*ORANGE        FAIR      52  52 100 CALM      30.05R
PORT ARTHUR    FAIR      56  52  86 CALM      30.02F
GALVESTON      FAIR      67  56  67 S12       30.02F
ANGLETON       FAIR      54  52  93 CALM      30.01F
*BAY CITY      CLEAR     60  57  92 SE3       30.00F
PALACIOS       CLEAR     69  64  84 S10       29.98F
$$

TXZ229>234-239>247-210900-
TEXAS COASTAL BEND AND RIO GRANDE PLAINS

CITY           SKY/WX    TMP DP  RH WIND       PRES   REMARKS
VICTORIA       CLEAR     59  57  93 SE6       29.98F
*BEEVILLE      CLEAR     60  56  88 SE6       29.96F
ROCKPORT       CLEAR     69  62  78 S9        29.96F
*PORT ARANSAS  CLEAR     71  64  78 SE15      29.98F
*PORT LAVACA   CLEAR     64  61  91 S6        29.99S
*INGLESIDE     CLEAR     69  63  82 S10       29.96F
CORPUS CHRISTI CLEAR     65  61  87 SE8       29.96F
CORPUS NAS     CLEAR     73  65  75 S13       29.96F
*ROBSTOWN      NOT AVBL
ALICE          CLEAR     57  57 100 SE7       29.94F
KINGSVILLE NAS CLEAR     67  62  84 SE9       29.95F
COTULLA        CLEAR     61  56  83 SE10      29.92F
LAREDO         CLEAR     68  60  75 SE13      29.90F
$$

TXZ248>255-210900-
DEEP SOUTH TEXAS

CITY           SKY/WX    TMP DP  RH WIND       PRES   REMARKS
BROWNSVILLE    FAIR      70  64  81 SE12      29.96F
PORT ISABEL    FAIR      69  62  78 SE13      29.95F
HARLINGEN      PTCLDY    66  62  87 SE10      29.94F
*HEBBRONVILLE  CLOUDY    64  59  82 S12G17    29.94F
MCALLEN        MOCLDY    69  64  84 SE10      29.93F
*WESLACO       CLOUDY    67  63  87 S12       29.94
FALFURRIAS     CLEAR     64  59  86 SE6       29.95S
EDINBURG       FAIR      69  64  84 SE10      29.94F
*ZAPATA        CLOUDY    69  62  79 SE9       29.92S
$$

TXZ213>215-236>238-242>244-246-247-251-254-255-210900-
CMAN STATIONS

STATION/POSITION TIME  TEMP    WIND        PRES    WAVE
                       AIR SEA DIR/SP/G            HT/PER
                 (UTC) (F)     (DEG/KT/KT) (MB)    (FT/S)
SABINE PASS      0742   63 71  200/  6/  8 1018.5
SEA RIM ST PARK  0800   67     200/ 11/ 13 1016.7
NORTH JETTY/GLS  0742   69 70  200/ 13/ 15 1016.2
EAGLE POINT      0742   67 70  210/  8/ 11 1016.5
MORGANS POINT    0742   66 70  180/  3/  6 1016.2
PORT O`CONNOR    0742   70 71  160/ 16/ 18 1014.8
PORT ARANSAS     0800   71 72  140/ 19/ 20 1014.3
MALAQUITE BEACH  0748   72 74  130/ 20/ 21 1013.6
BAFFIN BAY       0748   71 71  140/ 14/ 18 1014.4
PORT ISABEL      0736   71 75  150/ 13/ 16 1014.7
$$




USA.gov is the U.S. government's official web portal to all federal, state and local government web resources and services.